CSN6717 ZJSY-ZBAD

Flight info

Callsign CSN6717
Flight time 1h 21m
Altitude 41100
Route PORAP9Z PORAP W222 NUMKU/K0902S1310 W223 AGTEL/K0911S1250 W71 LH/K0904S1310 R339 BHY W159 IVPUB/K0913S1250 W120 ENKUS R343 GOSMA W82 UPMAT W56 ORODO/K0913S1310 W62 KARVU/K0909S1250 W62 IGDID/K0913S1310 W62 TEKIL G212 BELAX BELAX5L
Aircraft A359/H-SDE2E3GHIJ3J4J5LM1ORWXY/LB1D1

Departure

Time 2026-05-06 09:40
Airport Sanya Phoenix International Airport (ZJSY)

Arrival

Time 2026-05-06 11:01
Airport Beijing Daxing International Airport (ZBAD)
Time Latitude Longitude Altitude Speed Heading
2026-05-06 09:15 18.30837 109.40957 92 ft 0 kts 352°
2026-05-06 09:32 18.30835 109.40958 90 ft 2 kts 352°
2026-05-06 09:32 18.30818 109.40960 93 ft 2 kts 352°
2026-05-06 09:32 18.30802 109.40962 92 ft 2 kts 353°
2026-05-06 09:32 18.30786 109.40964 93 ft 2 kts 354°
2026-05-06 09:33 18.30771 109.40959 90 ft 2 kts 38°
2026-05-06 09:33 18.30759 109.40947 92 ft 2 kts 49°
2026-05-06 09:33 18.30749 109.40933 93 ft 2 kts 61°
2026-05-06 09:33 18.30745 109.40925 93 ft 0 kts 76°
2026-05-06 09:34 18.30742 109.40911 89 ft 2 kts 82°
2026-05-06 09:34 18.30740 109.40886 91 ft 3 kts 82°
2026-05-06 09:35 18.30739 109.40882 91 ft 0 kts 82°
2026-05-06 09:36 18.30740 109.40910 89 ft 8 kts 96°
2026-05-06 09:36 18.30686 109.40963 92 ft 15 kts 162°
2026-05-06 09:36 18.30557 109.40985 94 ft 23 kts 172°
2026-05-06 09:36 18.30450 109.41037 93 ft 9 kts 107°
2026-05-06 09:37 18.30453 109.41138 93 ft 18 kts 82°
2026-05-06 09:37 18.30475 109.41301 96 ft 26 kts 82°
2026-05-06 09:37 18.30503 109.41517 96 ft 33 kts 82°
2026-05-06 09:37 18.30536 109.41776 97 ft 39 kts 82°
2026-05-06 09:38 18.30575 109.42077 100 ft 44 kts 82°
2026-05-06 09:38 18.30619 109.42408 100 ft 47 kts 83°
2026-05-06 09:38 18.30651 109.42691 103 ft 22 kts 89°
2026-05-06 09:38 18.30591 109.42793 105 ft 14 kts 160°
2026-05-06 09:39 18.30512 109.42795 103 ft 5 kts 221°
2026-05-06 09:39 18.30504 109.42782 102 ft 7 kts 236°
2026-05-06 09:39 18.30478 109.42656 102 ft 15 kts 262°
2026-05-06 09:39 18.30450 109.42439 102 ft 66 kts 262°
2026-05-06 09:40 18.30347 109.41664 100 ft 145 kts 262°
2026-05-06 09:40 18.30240 109.40880 301 ft 170 kts 261°
2026-05-06 09:40 18.29664 109.38304 1651 ft 211 kts 247°
2026-05-06 09:41 18.29064 109.36837 2336 ft 225 kts 243°
2026-05-06 09:41 18.28390 109.35272 3017 ft 243 kts 244°
2026-05-06 09:41 18.27703 109.33626 3928 ft 248 kts 245°
2026-05-06 09:41 18.27018 109.31957 4927 ft 250 kts 246°
2026-05-06 09:42 18.26786 109.31388 5242 ft 251 kts 247°
2026-05-06 09:43 18.23476 109.23161 10129 ft 257 kts 248°
2026-05-06 09:43 18.22937 109.21361 11083 ft 261 kts 259°
2026-05-06 09:43 18.22849 109.19437 11957 ft 268 kts 275°
2026-05-06 09:43 18.23334 109.17526 12887 ft 274 kts 292°
2026-05-06 09:44 18.24370 109.15826 13811 ft 282 kts 309°
2026-05-06 09:44 18.25906 109.14516 14662 ft 289 kts 328°
2026-05-06 09:44 18.27803 109.13773 15516 ft 296 kts 346°
2026-05-06 09:44 18.29880 109.13718 16393 ft 304 kts
2026-05-06 09:45 18.31887 109.14403 17218 ft 313 kts 26°
2026-05-06 09:45 18.33620 109.15827 18069 ft 322 kts 47°
2026-05-06 09:45 18.34799 109.17847 18779 ft 328 kts 67°
2026-05-06 09:45 18.35579 109.20121 19498 ft 332 kts 71°
2026-05-06 09:46 18.36311 109.22439 20231 ft 335 kts 71°
2026-05-06 09:46 18.37054 109.24778 20960 ft 339 kts 70°
2026-05-06 09:46 18.38039 109.27831 21896 ft 343 kts 70°
2026-05-06 09:46 18.39603 109.32629 23344 ft 351 kts 70°
2026-05-06 09:47 18.41209 109.37538 24573 ft 357 kts 70°
2026-05-06 09:47 18.42844 109.42531 25754 ft 364 kts 70°
2026-05-06 09:47 18.44508 109.47618 26969 ft 371 kts 70°
2026-05-06 09:47 18.46201 109.52799 28110 ft 377 kts 70°
2026-05-06 09:48 18.48096 109.57990 29267 ft 383 kts 60°
2026-05-06 09:48 18.51526 109.62266 30155 ft 390 kts 34°
2026-05-06 09:48 18.56412 109.64994 30560 ft 409 kts 22°
2026-05-06 09:48 18.61761 109.67513 30974 ft 432 kts 22°
2026-05-06 09:49 18.67370 109.70183 31376 ft 453 kts 22°
2026-05-06 09:49 18.73244 109.72996 31784 ft 473 kts 22°
2026-05-06 09:49 18.79349 109.75932 32185 ft 491 kts 22°
2026-05-06 09:49 18.85644 109.78952 32864 ft 500 kts 22°
2026-05-06 09:50 18.92013 109.82011 33640 ft 505 kts 22°
2026-05-06 09:50 18.98428 109.85097 34437 ft 506 kts 22°
2026-05-06 09:50 19.04808 109.88171 35436 ft 502 kts 22°
2026-05-06 09:50 19.11148 109.91226 36321 ft 500 kts 22°
2026-05-06 09:51 19.17469 109.94275 37158 ft 498 kts 22°
2026-05-06 09:51 19.23759 109.97312 38001 ft 496 kts 22°
2026-05-06 09:51 19.30037 110.00300 38765 ft 494 kts 21°
2026-05-06 09:51 19.36314 110.03226 39357 ft 493 kts 21°
2026-05-06 09:52 19.42566 110.06230 39964 ft 492 kts 22°
2026-05-06 09:52 19.48791 110.09246 40582 ft 491 kts 22°
2026-05-06 09:52 19.54996 110.12252 40954 ft 490 kts 22°
2026-05-06 09:52 19.61185 110.15247 40954 ft 489 kts 22°
2026-05-06 09:53 19.73567 110.21241 40954 ft 489 kts 22°
2026-05-06 09:53 19.85955 110.27250 40957 ft 489 kts 22°
2026-05-06 09:54 19.98340 110.33269 40955 ft 490 kts 22°
2026-05-06 09:54 20.11169 110.37095 41368 ft 480 kts 356°
2026-05-06 09:55 20.17738 110.36239 41919 ft 474 kts 347°
2026-05-06 09:55 20.24203 110.34887 42440 ft 472 kts 346°
2026-05-06 09:55 20.32347 110.33095 42866 ft 471 kts 346°
2026-05-06 09:55 20.45178 110.30355 42870 ft 471 kts 346°
2026-05-06 09:56 20.58309 110.29829 42872 ft 476 kts
2026-05-06 09:56 20.71531 110.30728 42869 ft 476 kts
2026-05-06 09:56 20.97973 110.32479 42872 ft 476 kts
2026-05-06 09:57 21.10846 110.30700 42870 ft 465 kts 333°
2026-05-06 09:57 21.20159 110.21583 42878 ft 458 kts 298°
2026-05-06 09:57 21.31660 109.97255 42862 ft 457 kts 298°
2026-05-06 09:58 21.43701 109.73229 42859 ft 457 kts 297°
2026-05-06 09:58 21.56162 109.49466 42851 ft 458 kts 309°
2026-05-06 09:59 21.66877 109.42268 42853 ft 467 kts 344°
2026-05-06 09:59 21.79806 109.40362 42853 ft 470 kts 351°
2026-05-06 09:59 22.05760 109.37076 42851 ft 469 kts 350°
2026-05-06 10:00 22.15565 109.35799 42854 ft 468 kts 350°
2026-05-06 10:00 22.22038 109.34957 42850 ft 468 kts 350°
2026-05-06 10:01 22.28511 109.34532 42851 ft 473 kts 360°
2026-05-06 10:01 22.44093 109.37260 42846 ft 477 kts
2026-05-06 10:02 22.70206 109.42448 42847 ft 477 kts
2026-05-06 10:02 22.96370 109.47622 42844 ft 478 kts
2026-05-06 10:03 23.22540 109.52820 42841 ft 478 kts
2026-05-06 10:03 23.48707 109.58038 42841 ft 478 kts
2026-05-06 10:04 23.74900 109.63283 42847 ft 478 kts
2026-05-06 10:04 24.01104 109.68542 42849 ft 479 kts
2026-05-06 10:05 24.27308 109.73826 42843 ft 479 kts
2026-05-06 10:05 24.53506 109.79131 42844 ft 479 kts
2026-05-06 10:06 24.78348 109.89753 42856 ft 494 kts 30°
2026-05-06 10:06 25.01161 110.06811 42852 ft 496 kts 29°
2026-05-06 10:07 25.24023 110.23866 42854 ft 496 kts 29°
2026-05-06 10:07 25.46946 110.40888 42866 ft 497 kts 28°
2026-05-06 10:08 25.70002 110.57284 42876 ft 495 kts 26°
2026-05-06 10:08 25.93487 110.73236 42869 ft 495 kts 26°
2026-05-06 10:09 26.17009 110.89187 42834 ft 495 kts 25°
2026-05-06 10:09 26.40574 111.05196 42816 ft 497 kts 25°
2026-05-06 10:10 26.64040 111.21386 42806 ft 495 kts 27°
2026-05-06 10:10 26.87066 111.38382 42794 ft 495 kts 27°
2026-05-06 10:11 27.10620 111.54248 42791 ft 493 kts 24°
2026-05-06 10:11 27.34164 111.70282 42794 ft 496 kts 25°
2026-05-06 10:12 27.57684 111.86607 42787 ft 497 kts 25°
2026-05-06 10:12 27.81217 112.03025 42789 ft 498 kts 25°
2026-05-06 10:13 28.00825 112.16721 42785 ft 498 kts 24°
2026-05-06 10:13 28.23895 112.34554 42786 ft 504 kts 28°
2026-05-06 10:14 28.35380 112.43666 42774 ft 504 kts 28°
2026-05-06 10:14 28.71173 112.72245 42780 ft 504 kts 28°
2026-05-06 10:15 28.94097 112.90683 42787 ft 504 kts 28°
2026-05-06 10:15 29.16970 113.09182 42776 ft 508 kts 28°
2026-05-06 10:16 29.40285 113.27080 42805 ft 498 kts 20°
2026-05-06 10:16 29.64914 113.41773 42795 ft 499 kts 20°
2026-05-06 10:17 29.89469 113.56516 42787 ft 497 kts 20°
2026-05-06 10:17 30.14498 113.69528 42770 ft 492 kts 15°
2026-05-06 10:18 30.39661 113.82122 42772 ft 492 kts 15°
2026-05-06 10:18 30.64817 113.94794 42772 ft 493 kts 16°
2026-05-06 10:19 30.89826 114.08163 42769 ft 495 kts 18°
2026-05-06 10:19 31.14832 114.21728 42783 ft 497 kts 18°
2026-05-06 10:20 31.40265 114.33232 42781 ft 474 kts 356°
2026-05-06 10:20 31.66508 114.34069 42793 ft 472 kts 353°
2026-05-06 10:21 31.92787 114.34873 42778 ft 472 kts 354°
2026-05-06 10:21 32.19045 114.35658 42776 ft 472 kts 354°
2026-05-06 10:22 32.45427 114.37646 42771 ft 477 kts 357°
2026-05-06 10:22 32.71773 114.40089 42771 ft 479 kts 356°
2026-05-06 10:23 32.98383 114.42565 42776 ft 480 kts 356°
2026-05-06 10:23 33.25106 114.45074 42785 ft 482 kts 357°
2026-05-06 10:24 33.51911 114.47597 42775 ft 483 kts 357°
2026-05-06 10:24 33.78748 114.50120 42767 ft 483 kts 356°
2026-05-06 10:25 34.05594 114.52646 42768 ft 483 kts 356°
2026-05-06 10:25 34.32435 114.55192 42777 ft 485 kts 356°
2026-05-06 10:26 34.59370 114.57760 42777 ft 486 kts 356°
2026-05-06 10:26 34.86327 114.60321 42772 ft 486 kts 356°
2026-05-06 10:27 35.13269 114.62903 42778 ft 486 kts 356°
2026-05-06 10:27 35.40234 114.65505 42778 ft 486 kts 356°
2026-05-06 10:28 35.67235 114.68128 42797 ft 486 kts 356°
2026-05-06 10:28 35.94223 114.70766 42815 ft 487 kts 356°
2026-05-06 10:29 36.21270 114.73423 42825 ft 488 kts 355°
2026-05-06 10:29 36.45817 114.74680 42869 ft 479 kts 349°
2026-05-06 10:30 36.52485 114.74371 42837 ft 480 kts 348°
2026-05-06 10:30 36.59156 114.74049 42842 ft 480 kts 348°
2026-05-06 10:31 36.65827 114.73738 42846 ft 480 kts 349°
2026-05-06 10:31 36.72506 114.73450 42844 ft 482 kts 350°
2026-05-06 10:32 36.75891 114.73681 42844 ft 493 kts 358°
2026-05-06 10:32 36.79287 114.74536 42847 ft 504 kts
2026-05-06 10:32 36.85901 114.77811 42841 ft 516 kts 16°
2026-05-06 10:33 36.92418 114.81614 42847 ft 518 kts 17°
2026-05-06 10:33 36.98923 114.85489 42848 ft 518 kts 17°
2026-05-06 10:34 37.05441 114.89335 42848 ft 518 kts 17°
2026-05-06 10:34 37.11961 114.93156 42852 ft 518 kts 17°
2026-05-06 10:35 37.18496 114.96982 42853 ft 518 kts 17°
2026-05-06 10:35 37.25027 115.00815 42852 ft 518 kts 17°
2026-05-06 10:36 37.31550 115.04652 42852 ft 518 kts 17°
2026-05-06 10:36 37.38073 115.08499 42851 ft 518 kts 17°
2026-05-06 10:37 37.44600 115.12354 42853 ft 518 kts 17°
2026-05-06 10:37 37.51127 115.16218 42849 ft 518 kts 17°
2026-05-06 10:38 37.57652 115.20085 42851 ft 518 kts 17°
2026-05-06 10:38 37.64179 115.23957 42861 ft 518 kts 17°
2026-05-06 10:39 37.70709 115.27839 42856 ft 518 kts 17°
2026-05-06 10:39 37.77271 115.31564 42861 ft 511 kts 10°
2026-05-06 10:40 37.80650 115.32744 42857 ft 498 kts
2026-05-06 10:40 37.84004 115.33230 42847 ft 485 kts 352°
2026-05-06 10:40 37.90650 115.32761 42515 ft 476 kts 345°
2026-05-06 10:41 37.93919 115.32322 41981 ft 471 kts 343°
2026-05-06 10:41 37.97166 115.31841 41280 ft 470 kts 343°
2026-05-06 10:41 38.00433 115.31337 40993 ft 476 kts 342°
2026-05-06 10:41 38.06856 115.30367 40515 ft 480 kts 343°
2026-05-06 10:42 38.10177 115.29887 40301 ft 481 kts 343°
2026-05-06 10:42 38.13505 115.29405 40062 ft 482 kts 343°
2026-05-06 10:42 38.16837 115.28913 39823 ft 483 kts 342°
2026-05-06 10:42 38.20180 115.28416 39588 ft 484 kts 342°
2026-05-06 10:43 38.23528 115.27917 39355 ft 484 kts 342°
2026-05-06 10:43 38.26876 115.27419 39122 ft 485 kts 342°
2026-05-06 10:43 38.31632 115.26714 38797 ft 486 kts 342°
2026-05-06 10:44 38.42837 115.25049 37929 ft 489 kts 342°
2026-05-06 10:44 38.49604 115.24042 37403 ft 490 kts 342°
2026-05-06 10:44 38.56485 115.23525 36915 ft 511 kts 355°
2026-05-06 10:44 38.63480 115.26249 36403 ft 548 kts 22°
2026-05-06 10:45 38.69119 115.33060 35885 ft 574 kts 53°
2026-05-06 10:45 38.71924 115.42629 35429 ft 580 kts 84°
2026-05-06 10:45 38.72809 115.52903 34943 ft 583 kts 75°
2026-05-06 10:45 38.76221 115.62202 33763 ft 576 kts 56°
2026-05-06 10:46 38.80419 115.70984 31614 ft 579 kts 56°
2026-05-06 10:46 38.84586 115.79875 29337 ft 584 kts 57°
2026-05-06 10:46 38.88697 115.88787 27496 ft 573 kts 57°
2026-05-06 10:46 38.92678 115.97468 25942 ft 556 kts 57°
2026-05-06 10:47 38.96534 116.05899 24551 ft 539 kts 57°
2026-05-06 10:47 39.00563 116.13777 23146 ft 516 kts 43°
2026-05-06 10:47 39.06362 116.18549 21320 ft 483 kts 11°
2026-05-06 10:47 39.12718 116.18825 19777 ft 441 kts 339°
2026-05-06 10:48 39.18377 116.16460 18368 ft 422 kts 337°
2026-05-06 10:48 39.24092 116.14857 16884 ft 417 kts 343°
2026-05-06 10:48 39.29785 116.13759 15243 ft 408 kts 346°
2026-05-06 10:48 39.35284 116.12847 13653 ft 389 kts 347°
2026-05-06 10:49 39.40378 116.12047 12067 ft 359 kts 348°
2026-05-06 10:49 39.45279 116.11275 10794 ft 346 kts 350°
2026-05-06 10:49 39.49764 116.10588 10528 ft 305 kts 350°
2026-05-06 10:49 39.53740 116.09986 10283 ft 271 kts 350°
2026-05-06 10:50 39.57418 116.09415 10046 ft 268 kts 350°
2026-05-06 10:50 39.61113 116.08844 9749 ft 265 kts 350°
2026-05-06 10:50 39.64751 116.08288 9225 ft 264 kts 351°
2026-05-06 10:50 39.68393 116.07730 8532 ft 263 kts 351°
2026-05-06 10:51 39.72011 116.07184 7857 ft 261 kts 352°
2026-05-06 10:51 39.75481 116.08397 7192 ft 273 kts 37°
2026-05-06 10:51 39.76921 116.12394 6936 ft 263 kts 77°
2026-05-06 10:51 39.77143 116.14718 6785 ft 257 kts 79°
2026-05-06 10:52 39.77340 116.17022 6552 ft 256 kts 79°
2026-05-06 10:52 39.77543 116.19312 6269 ft 255 kts 79°
2026-05-06 10:52 39.77751 116.21592 6005 ft 253 kts 79°
2026-05-06 10:52 39.77962 116.23897 5811 ft 253 kts 79°
2026-05-06 10:53 39.78161 116.26142 5433 ft 254 kts 80°
2026-05-06 10:53 39.78363 116.28421 5122 ft 250 kts 81°
2026-05-06 10:53 39.78550 116.30574 4944 ft 229 kts 81°
2026-05-06 10:53 39.78545 116.32522 4868 ft 205 kts 100°
2026-05-06 10:54 39.77898 116.34033 4786 ft 186 kts 137°
2026-05-06 10:54 39.76790 116.34764 4725 ft 175 kts 171°
2026-05-06 10:54 39.75600 116.35012 4679 ft 172 kts 176°
2026-05-06 10:54 39.74430 116.35181 4617 ft 163 kts 177°
2026-05-06 10:55 39.73349 116.35371 4492 ft 150 kts 174°
2026-05-06 10:55 39.72352 116.35516 4349 ft 140 kts 180°
2026-05-06 10:55 39.71394 116.35617 4179 ft 137 kts 178°
2026-05-06 10:55 39.70450 116.35755 3987 ft 137 kts 177°
2026-05-06 10:56 39.69497 116.35905 3806 ft 139 kts 174°
2026-05-06 10:56 39.68537 116.36057 3607 ft 138 kts 176°
2026-05-06 10:56 39.67583 116.36206 3423 ft 138 kts 174°
2026-05-06 10:56 39.66641 116.36354 3249 ft 135 kts 174°
2026-05-06 10:57 39.65724 116.36498 3070 ft 131 kts 173°
2026-05-06 10:57 39.64826 116.36641 2890 ft 129 kts 172°
2026-05-06 10:57 39.63945 116.36781 2727 ft 126 kts 171°
2026-05-06 10:57 39.63079 116.36920 2571 ft 125 kts 170°
2026-05-06 10:58 39.62225 116.37057 2408 ft 122 kts 170°
2026-05-06 10:58 39.61384 116.37191 2250 ft 121 kts 169°
2026-05-06 10:58 39.60555 116.37322 2083 ft 119 kts 168°
2026-05-06 10:58 39.59735 116.37455 1928 ft 119 kts 169°
2026-05-06 10:59 39.58917 116.37585 1764 ft 118 kts 167°
2026-05-06 10:59 39.58105 116.37715 1613 ft 117 kts 167°
2026-05-06 10:59 39.57293 116.37845 1410 ft 119 kts 168°
2026-05-06 10:59 39.56472 116.37972 1223 ft 117 kts 167°
2026-05-06 11:00 39.55660 116.38108 957 ft 118 kts 167°
2026-05-06 11:00 39.54843 116.38253 785 ft 121 kts 169°
2026-05-06 11:00 39.54004 116.38379 602 ft 121 kts 170°
2026-05-06 11:00 39.53188 116.38498 391 ft 114 kts 168°
2026-05-06 11:01 39.52389 116.38631 266 ft 117 kts 167°
2026-05-06 11:01 39.51568 116.38757 140 ft 119 kts 169°
2026-05-06 11:01 39.50848 116.38878 114 ft 73 kts 172°
2026-05-06 11:01 39.50531 116.38925 112 ft 41 kts 173°
2026-05-06 11:02 39.50243 116.38969 112 ft 42 kts 173°
2026-05-06 11:02 39.49949 116.39015 112 ft 43 kts 173°
2026-05-06 11:02 39.49651 116.39062 113 ft 44 kts 173°
2026-05-06 11:02 39.49365 116.39167 114 ft 43 kts 150°
2026-05-06 11:03 39.49114 116.39381 111 ft 44 kts 146°
2026-05-06 11:03 39.49011 116.39606 114 ft 24 kts 81°
2026-05-06 11:03 39.49034 116.39833 112 ft 27 kts 83°
2026-05-06 11:03 39.49058 116.40084 114 ft 29 kts 82°
2026-05-06 11:04 39.49093 116.40332 111 ft 21 kts 55°
2026-05-06 11:04 39.49187 116.40361 112 ft 15 kts 356°
2026-05-06 11:04 39.49308 116.40346 112 ft 20 kts 352°
2026-05-06 11:04 39.49459 116.40317 112 ft 24 kts 351°
2026-05-06 11:05 39.49641 116.40292 112 ft 28 kts 354°
2026-05-06 11:05 39.49849 116.40258 112 ft 32 kts 353°
2026-05-06 11:05 39.50082 116.40222 113 ft 35 kts 353°
2026-05-06 11:05 39.50334 116.40184 113 ft 33 kts 353°
2026-05-06 11:06 39.50577 116.40146 113 ft 37 kts 351°
2026-05-06 11:06 39.50840 116.40105 112 ft 40 kts 354°
2026-05-06 11:06 39.50974 116.40115 112 ft 6 kts 54°
2026-05-06 11:06 39.50996 116.40185 111 ft 10 kts 75°
2026-05-06 11:07 39.51009 116.40295 111 ft 14 kts 83°
2026-05-06 11:07 39.51008 116.40436 113 ft 18 kts 95°
2026-05-06 11:07 39.50979 116.40606 111 ft 21 kts 109°
2026-05-06 11:07 39.50937 116.40730 111 ft 9 kts 115°
2026-05-06 11:08 39.50931 116.40746 112 ft 1 kts 116°
2026-05-06 11:08 39.50928 116.40752 114 ft 0 kts 116°